Dewpoint
6 5 5 4 3 2 1 -1 -2 -4 -5 -5 -6 -7 -6 -3 1 2 1 -1 3 5 5 5 3 3 2 3 8 4 6 7 9 6 8 9 8 7 5 2 5 6 7 6 6 6 6 0 -0 4 5 4 4 4
6 6 5 4 4 3 2 0 -1 -3 -4 -5 -6 -7 -6 -5 -0 2 7 1 1 4 5 3 4 3 3 4 4 5 3 6 7 8 8 9 6 6 8 7 -2 4 6 7 5 6 1 1 2 3 4 5 3 3
4 5 5 5 4 4 3 2 1 -1 -3 -4 -5 -5 -6 -5 -3 2 7 1 2 4 6 2 3 1 2 3 4 4 4 3 4 6 6 5 5 6 6 7 4 -1 -3 7 5 1 0 1 2 5 5 4 3 2
3 3 5 5 4 5 4 3 3 2 0 -1 -3 -4 -5 -5 -3 0 4 2 6 3 5 7 5 2 -0 -0 2 3 4 4 6 5 5 4 5 4 7 6 7 4 0 2 3 1 1 3 4 4 4 3 3 2
0 2 2 3 4 4 4 4 3 3 3 2 0 -1 -3 -4 -3 -1 1 2 4 6 6 8 6 5 1 3 5 3 3 3 7 6 3 5 7 7 7 6 7 2 1 5 6 2 4 4 4 3 3 3 1 1
-1 -0 1 1 2 3 4 4 4 4 4 3 2 1 -0 -1 -1 1 6 2 3 4 5 8 7 6 5 6 6 6 5 5 6 7 6 6 4 5 6 6 2 0 -1 -0 1 4 5 4 3 2 1 -1 -2 -4
-3 -3 -2 -0 1 2 2 3 3 4 4 4 4 4 3 2 3 8 6 8 4 4 4 6 7 6 6 6 7 7 6 6 6 6 6 7 5 4 5 6 1 -1 -1 -0 3 4 3 3 2 2 -2 -3 -4 -6
-3 -3 -3 -1 0 2 2 3 3 4 4 4 4 5 5 4 5 6 6 4 5 6 5 7 6 6 5 6 7 6 7 7 7 6 6 6 5 5 7 2 1 1 0 2 2 3 2 1 1 -2 -4 -6 -8 -10
-3 -2 -3 -2 -2 0 2 3 3 4 4 4 4 4 4 5 5 5 5 4 5 6 6 5 5 6 5 5 5 4 5 5 5 6 6 5 6 6 4 2 1 1 2 2 2 1 -1 -2 -4 -5 -7 -10 -10 -9
-2 -3 -3 -3 -3 -2 1 2 3 4 4 4 5 5 5 6 4 4 5 5 5 6 6 4 5 6 4 4 3 3 3 5 5 4 4 3 4 3 1 2 2 2 2 2 1 -1 -2 -4 -6 -8 -9 -9 -7 -8
-2 -2 -3 -4 -4 -3 -3 -1 1 4 5 5 5 5 5 5 5 5 5 5 5 5 5 5 5 4 4 4 4 3 3 3 5 4 4 4 4 2 1 2 2 1 1 0 -0 -1 -3 -8 -9 -9 -9 -8 -10 -13
-2 -2 -2 -3 -2 -2 -0 1 2 3 3 4 4 4 4 4 3 4 3 3 3 5 3 3 4 4 3 4 3 2 3 2 4 2 3 4 2 1 2 1 1 -0 -1 -3 -6 -8 -9 -9 -8 -8 -11 -16 -14 -11
-3 -2 -2 -2 0 -0 1 1 2 3 3 3 2 2 2 0 2 3 4 3 3 1 1 1 1 2 2 2 1 1 2 3 1 3 3 1 0 -0 1 1 -1 -3 -6 -8 -9 -9 -9 -11 -14 -18 -19 -17 -11 -9
-4 -3 -3 -1 1 1 -0 1 2 2 2 1 0 1 1 2 1 1 1 1 0 1 1 1 0 1 0 1 0 2 2 2 3 3 2 2 -2 -1 -1 -1 -3 -5 -7 -10 -11 -11 -11 -14 -19 -20 -16 -11 -9 -10
-8 -3 -3 -2 0 0 0 1 1 1 1 -0 0 2 1 -1 -1 -1 -1 -0 0 1 1 1 0 1 0 1 1 1 1 2 2 3 2 -2 -2 -2 -2 -2 -3 -6 -8 -10 -10 -12 -18 -20 -19 -16 -12 -10 -10 -9
-7 -4 -2 -2 -2 -0 0 0 0 0 -1 -0 -0 0 -1 0 -0 -0 -0 -0 -0 0 0 0 0 2 2 1 1 2 2 2 3 2 -2 -5 -5 -4 -6 -6 -9 -10 -9 -9 -12 -16 -17 -15 -13 -11 -11 -11 -10 -9
-5 -1 -1 -1 -1 -1 -1 -0 0 -0 -2 -1 -1 -1 -1 -0 -0 -0 -0 0 0 0 0 1 2 1 -0 1 2 2 2 2 0 -1 -3 -4 -8 -8 -10 -12 -13 -12 -10 -8 -13 -14 -13 -12 -11 -10 -9 -9 -8 -7
-2 -1 -2 -1 -1 -1 -0 -1 -1 -1 -1 -1 0 -2 -1 -1 -1 -0 -0 -0 0 -1 -1 -0 -2 -0 1 1 0 1 -1 -2 -2 -4 -6 -9 -10 -10 -9 -9 -8 -6 -7 -10 -12 -12 -12 -10 -7 -6 -6 -6 -6 -7
-2 -2 -1 -1 -1 -2 -2 -1 -1 -1 -2 -2 -2 -2 -2 -2 -2 -1 -1 -1 -0 -1 -2 -3 0 -1 0 -3 -1 -1 -2 -3 -3 -5 -5 -5 -5 -6 -7 -10 -12 -12 -10 -8 -8 -7 -6 -6 -6 -6 -7 -7 -8 -7
-3 -3 -2 -1 -1 -2 -2 -2 -2 -1 -1 -2 -2 -2 -3 -2 -2 -2 -1 -1 -1 -2 -1 -1 -1 -1 -2 -3 -3 -5 -5 -6 -4 -3 -4 -5 -6 -7 -7 -7 -6 -7 -7 -7 -6 -6 -5 -5 -6 -7 -7 -7 -6 -6
-3 -3 -3 -2 -1 -1 -2 -2 -2 -2 -3 -3 -3 -2 -3 -4 -3 -3 -2 -1 -1 -1 -2 -3 -3 -3 -3 -3 -5 -5 -5 -5 -5 -5 -6 -6 -6 -6 -7 -8 -6 -5 -5 -5 -8 -9 -10 -11 -10 -10 -8 -6 -6 -5
-2 -2 -2 -2 -2 -3 -2 -3 -2 -3 -2 -3 -3 -2 -3 -3 -4 -3 -4 -3 -2 -3 -3 -3 -3 -3 -3 -3 -4 -4 -5 -8 -11 -12 -10 -7 -6 -6 -6 -6 -7 -9 -9 -9 -8 -8 -8 -7 -6 -6 -5 -5 -5 -5
-3 -3 -2 -2 -3 -3 -3 -3 -3 -3 -4 -3 -3 -4 -4 -4 -4 -4 -4 -4 -4 -3 -4 -4 -4 -4 -4 -4 -4 -8 -12 -13 -12 -6 -7 -7 -6 -6 -6 -6 -6 -6 -6 -7 -7 -6 -6 -6 -6 -6 -5 -5 -6 -6
-3 -3 -3 -3 -3 -3 -4 -3 -4 -4 -5 -4 -4 -4 -4 -5 -5 -5 -5 -5 -5 -4 -4 -4 -5 -5 -5 -8 -9 -8 -7 -7 -7 -7 -6 -6 -6 -6 -6 -6 -7 -7 -7 -6 -7 -6 -6 -6 -7 -7 -7 -7 -7 -7
-3 -4 -4 -4 -4 -4 -5 -5 -5 -5 -4 -4 -4 -5 -5 -5 -4 -5 -5 -4 -3 -4 -3 -4 -4 -5 -8 -8 -7 -5 -4 -5 -5 -5 -8 -7 -6 -6 -5 -5 -6 -5 -5 -6 -5 -5 -6 -6 -7 -8 -7 -7 -8 -8
-3 -4 -3 -3 -4 -3 -4 -4 -4 -5 -5 -5 -5 -5 -5 -5 -5 -5 -6 -4 -5 -5 -5 -5 -4 -4 -4 -4 -5 -6 -7 -8 -9 -9 -8 -8 -8 -7 -7 -7 -7 -7 -6 -6 -6 -7 -7 -7 -7 -7 -8 -8 -8 -8
-3 -4 -5 -5 -4 -4 -4 -4 -5 -5 -5 -5 -5 -5 -5 -5 -6 -5 -5 -6 -6 -6 -6 -6 -7 -7 -7 -7 -8 -8 -9 -10 -12 -12 -12 -11 -8 -8 -8 -9 -9 -10 -9 -9 -9 -9 -9 -9 -8 -8 -9 -9 -9 -9
-4 -5 -5 -5 -5 -5 -5 -6 -5 -5 -5 -7 -6 -6 -6 -7 -5 -7 -7 -8 -8 -8 -8 -8 -8 -9 -10 -10 -10 -10 -11 -12 -13 -13 -12 -9 -9 -11 -10 -11 -11 -11 -11 -11 -11 -10 -10 -10 -10 -10 -10 -10 -10 -10
-5 -5 -5 -5 -5 -5 -5 -6 -6 -7 -6 -6 -6 -6 -5 -8 -8 -9 -9 -9 -9 -9 -9 -10 -11 -12 -11 -11 -11 -12 -12 -13 -14 -14 -14 -13 -13 -14 -14 -14 -14 -14 -13 -13 -12 -12 -12 -12 -12 -11 -11 -11 -11 -12
-5 -5 -5 -5 -5 -5 -4 -4 -4 -5 -5 -4 -4 -6 -8 -11 -11 -11 -11 -11 -11 -11 -12 -12 -13 -13 -13 -13 -13 -13 -13 -14 -15 -15 -15 -15 -15 -15 -15 -15 -15 -14 -14 -14 -13 -13 -13 -13 -13 -12 -13 -13 -13 -13
-5 -5 -5 -5 -5 -5 -5 -7 -7 -8 -8 -7 -6 -5 -8 -11 -12 -12 -12 -13 -14 -13 -14 -14 -14 -14 -15 -15 -15 -15 -15 -15 -16 -16 -16 -16 -16 -16 -16 -16 -16 -15 -15 -15 -14 -14 -14 -14 -14 -14 -15 -14 -14 -14
-5 -5 -5 -5 -4 -6 -6 -5 -5 -5 -5 -5 -5 -7 -9 -9 -11 -14 -14 -15 -15 -15 -15 -15 -15 -16 -16 -16 -16 -17 -17 -17 -18 -17 -17 -17 -17 -17 -17 -17 -16 -16 -16 -16 -16 -16 -16 -16 -16 -15 -15 -15 -15 -15
-6 -6 -7 -7 -7 -8 -6 -8 -8 -8 -7 -8 -7 -8 -11 -10 -12 -15 -15 -16 -16 -16 -18 -20 -20 -20 -18 -17 -18 -18 -18 -18 -19 -19 -19 -19 -19 -19 -18 -17 -17 -17 -17 -17 -17 -17 -17 -17 -16 -16 -16 -16 -17 -19
Wind_Speed
28 25 23 20 20 20 20 19 17 16 14 13 11 9 8 7 7 8 6 5 5 4 4 5 7 13 8 11 5 13 5 2 3 3 3 2 2 4 2 3 6 7 7 4 3 3 6 2 2 1 5 10 2 3
31 26 25 21 19 19 18 18 17 16 15 14 12 11 10 9 8 6 1 4 6 5 8 11 11 11 9 5 10 16 4 8 8 3 2 1 2 2 2 3 8 4 6 4 9 5 10 3 7 10 10 7 3 8
18 28 27 22 18 15 16 17 17 16 15 14 13 12 11 10 10 10 6 7 5 5 5 6 4 10 11 11 11 6 7 5 10 7 7 3 3 4 4 5 2 3 9 3 2 7 12 10 3 6 6 2 5 6
8 13 17 19 19 16 14 14 15 16 15 15 14 13 12 11 10 10 7 9 6 4 4 4 7 8 11 11 11 10 9 10 12 7 5 3 3 12 5 6 3 6 6 6 9 15 15 3 5 7 1 7 9 7
13 10 9 11 14 15 15 14 14 15 14 14 13 13 13 12 11 11 10 10 10 2 4 2 6 11 11 9 7 9 10 11 10 5 3 4 4 1 4 1 4 10 10 7 8 8 3 3 4 4 7 6 6 5
11 11 9 4 8 11 14 15 14 15 14 12 11 11 12 12 10 7 2 7 12 9 2 2 3 2 9 9 9 8 11 10 10 6 5 5 8 7 3 3 10 17 16 11 14 0 3 2 7 6 3 1 1 2
10 9 8 5 5 8 11 14 17 16 13 12 10 10 11 12 13 7 4 6 12 11 3 1 3 3 9 7 8 8 10 8 7 4 6 4 4 9 4 5 11 13 14 14 1 3 3 6 4 5 3 1 3 5
8 8 7 6 3 5 6 10 13 17 14 12 11 8 8 11 13 10 8 3 9 8 6 3 2 2 10 4 3 4 4 4 3 4 3 4 5 6 4 10 12 14 15 6 5 2 5 2 6 3 2 2 5 9
5 6 7 6 5 2 5 6 10 16 16 16 12 9 8 7 7 12 10 4 11 7 4 5 6 4 9 5 4 4 4 1 2 2 5 3 3 6 7 10 11 12 8 9 5 5 6 5 3 1 2 5 8 11
4 4 5 7 7 3 3 7 7 15 21 19 14 7 6 6 10 11 7 4 4 5 5 6 7 3 8 7 3 5 2 1 2 2 2 2 5 16 16 9 5 10 9 7 9 11 7 6 2 3 5 7 9 11
6 6 6 6 7 5 0 2 9 10 24 22 11 8 8 20 14 9 6 6 6 3 7 9 15 5 7 4 3 5 3 2 3 3 3 3 3 9 20 14 8 8 8 8 10 9 7 3 2 5 8 10 16 18
4 6 7 5 7 6 6 3 7 8 7 11 7 9 10 4 3 4 5 4 4 5 6 9 6 7 7 5 4 6 3 2 5 8 2 3 3 8 15 11 9 10 12 11 9 7 3 1 4 10 15 20 20 19
2 3 5 5 7 8 10 7 7 5 14 11 3 2 1 0 3 3 5 3 3 4 6 6 4 6 5 4 5 2 5 5 2 3 3 1 8 9 12 14 12 12 13 11 6 2 3 8 14 18 21 20 19 21
2 4 3 6 5 4 8 8 9 5 3 3 2 3 1 2 1 1 2 3 2 2 13 16 7 4 4 3 4 4 1 2 3 3 3 4 8 10 12 12 12 9 9 6 3 7 13 19 23 22 20 19 20 25
1 3 2 2 5 4 2 2 3 5 3 3 2 2 2 1 2 3 2 4 6 9 8 9 6 4 2 3 1 3 4 3 3 1 2 9 11 12 12 10 12 9 6 6 10 16 22 23 23 23 20 20 23 25
1 2 2 1 2 2 2 1 3 2 3 1 2 2 2 2 4 4 7 8 7 9 7 5 2 2 2 2 2 2 2 1 2 3 5 7 10 7 6 6 5 6 10 13 18 23 21 21 21 22 24 25 24 20
1 0 2 3 3 2 2 4 2 3 2 2 1 4 4 5 3 3 4 5 3 4 2 1 2 4 1 0 0 1 0 2 4 6 7 6 6 4 1 4 10 13 16 20 23 22 22 21 22 24 25 21 16 18
2 4 4 6 2 5 2 1 1 0 1 2 3 5 3 3 4 4 3 4 3 2 2 2 3 2 1 1 1 2 3 5 8 5 3 4 2 4 10 13 12 14 18 21 22 22 22 20 19 22 22 20 19 21
4 3 4 9 6 2 2 1 3 1 1 2 2 4 2 1 3 5 5 5 4 4 4 2 1 2 1 3 1 1 6 6 4 3 1 4 10 14 14 12 14 16 16 16 19 21 21 21 23 23 23 22 23 24
9 4 8 11 8 3 2 1 3 2 2 4 5 5 3 2 2 3 5 6 4 3 2 1 2 2 2 1 3 4 2 3 2 6 9 10 8 10 12 14 17 18 18 18 19 18 19 20 21 23 23 24 25 26
9 10 8 9 11 5 2 4 2 2 3 2 6 4 2 4 3 2 3 5 3 2 3 7 5 6 7 6 6 5 6 8 9 9 11 11 10 12 16 17 15 15 16 18 20 23 23 24 25 27 26 26 28 29
11 13 10 11 4 5 3 6 4 5 3 4 6 4 3 2 2 2 2 3 3 8 7 7 8 7 8 9 7 8 9 10 10 11 10 10 11 12 13 13 15 18 19 21 22 26 26 24 25 25 25 25 25 27
13 14 13 7 3 4 4 11 4 5 4 5 4 4 2 2 1 2 2 4 6 6 7 8 8 10 11 10 11 10 7 6 7 7 10 14 13 14 16 18 19 21 23 27 25 23 24 25 29 27 26 27 26 25
16 7 7 7 5 4 7 4 4 5 4 4 4 3 4 3 2 3 2 3 2 1 2 4 3 3 4 2 1 1 2 6 8 10 11 14 18 21 22 24 27 26 26 24 26 28 29 28 27 25 23 23 24 21
6 6 5 4 5 5 4 5 4 4 3 4 4 3 3 4 3 3 2 4 4 1 1 3 2 1 1 1 1 2 4 6 8 14 21 20 22 25 26 25 26 25 29 32 29 26 27 27 28 24 22 20 21 21
3 4 2 4 4 3 5 5 5 5 4 4 3 4 4 3 3 3 2 5 6 8 9 7 7 4 4 7 8 11 16 21 24 25 23 23 26 28 29 29 28 22 20 19 18 22 26 24 22 21 19 20 19 18
3 3 2 2 3 7 5 5 6 4 4 4 4 5 4 3 4 3 6 6 3 2 4 4 3 4 7 11 14 18 19 22 22 23 24 21 18 20 19 17 16 19 23 25 24 20 19 18 17 17 19 18 18 17
3 2 3 4 3 2 4 4 3 3 2 6 10 4 3 3 2 2 3 0 1 1 2 4 9 12 11 15 15 14 18 19 17 15 11 3 10 15 16 18 20 20 20 18 18 18 17 17 17 17 18 19 17 13
4 5 4 4 2 2 2 2 2 2 4 8 5 3 4 3 7 5 4 2 2 3 6 8 10 11 9 7 7 11 16 16 16 15 14 12 16 19 20 21 22 22 21 20 17 16 16 16 16 16 15 10 11 13
2 3 2 2 1 2 3 4 3 4 3 4 2 3 3 4 3 4 3 5 5 6 6 6 8 8 7 8 7 6 11 17 15 14 15 17 21 23 24 24 24 23 22 21 20 18 16 16 14 9 12 15 14 8
2 2 2 2 3 3 1 2 1 1 2 1 3 1 4 5 2 2 2 3 5 5 3 4 4 7 8 8 10 11 11 13 17 18 19 20 22 23 25 25 24 23 21 20 19 16 17 16 10 9 12 12 11 10
3 4 3 1 4 3 3 1 0 1 1 1 2 3 2 4 3 3 2 4 2 3 5 5 7 8 10 10 10 12 15 17 17 20 22 23 24 23 23 24 24 23 21 19 16 15 15 13 11 11 10 12 11 11
2 3 3 2 1 2 3 4 2 2 3 3 3 3 2 3 4 1 2 2 2 4 6 9 10 11 10 12 14 13 17 20 22 21 22 23 24 24 24 23 22 21 19 17 13 14 15 13 12 11 11 11 11 11
Wind_Direction
172 173 174 174 176 182 187 189 190 192 193 196 197 194 192 186 178 174 171 154 144 92 129 78 140 178 173 173 146 146 128 100 79 86 161 179 144 226 157 175 167 169 168 197 197 234 255 339 332 202 8 338 63 337
169 173 172 175 177 179 184 189 192 195 198 200 200 200 198 195 189 167 134 165 155 154 164 169 162 169 176 131 155 169 174 148 167 133 137 80 165 22 106 217 204 212 192 186 184 212 226 5 222 262 275 258 247 292
113 160 170 176 185 184 187 189 192 196 200 205 208 206 203 203 198 190 180 171 141 121 114 130 165 187 188 159 159 158 206 178 158 146 144 159 172 158 176 224 267 276 272 186 202 255 276 297 305 135 169 192 299 269
114 106 153 170 186 191 190 194 196 199 201 205 211 213 210 210 208 204 178 191 156 162 129 175 203 201 200 193 193 186 198 182 170 161 127 151 172 199 195 243 240 230 283 279 286 293 297 34 114 145 292 298 272 275
91 107 119 154 181 189 198 205 206 202 204 205 210 215 216 215 213 213 219 208 196 171 165 145 176 231 205 187 182 185 187 179 156 140 129 204 209 268 129 83 242 240 259 253 263 279 269 144 156 279 279 279 271 261
88 88 100 147 176 190 202 205 207 209 203 204 207 214 216 212 205 194 202 249 219 194 183 147 202 196 203 193 188 185 186 193 199 173 195 237 213 207 156 236 244 251 262 283 312 261 150 193 288 273 234 353 323 311
79 77 74 119 162 200 207 208 212 210 215 208 208 210 208 201 185 175 189 215 208 196 187 86 182 185 176 181 188 210 211 220 227 226 201 212 230 208 151 228 243 255 264 263 157 157 231 275 240 180 163 231 276 297
73 60 54 57 148 177 193 208 210 206 208 200 205 204 213 200 199 208 216 243 188 179 200 163 154 209 173 185 165 168 175 200 235 253 135 203 230 228 252 250 258 256 255 177 151 207 242 249 184 177 188 290 317 313
72 61 44 39 42 195 189 189 201 202 195 195 198 202 212 207 204 208 215 227 205 195 230 163 159 196 166 141 153 149 168 177 248 239 191 218 166 219 228 255 265 255 169 163 187 226 180 173 161 192 276 299 311 320
56 50 37 31 31 41 186 197 195 196 197 192 190 190 201 185 187 203 224 232 224 226 222 179 172 162 162 165 118 124 164 248 237 219 186 243 253 247 245 268 255 165 161 179 192 171 164 151 216 275 299 305 308 298
43 33 17 15 12 14 339 219 195 195 187 186 186 206 184 157 160 177 180 190 197 244 212 185 184 143 159 139 150 187 164 170 239 171 217 233 252 235 237 213 170 166 178 177 162 164 157 178 262 300 298 291 295 304
55 38 18 15 21 37 30 63 173 189 186 188 166 144 152 186 184 180 177 179 198 216 163 148 128 143 136 140 134 173 166 150 241 142 204 248 224 106 141 154 164 155 141 133 136 139 141 277 298 291 302 306 307 305
101 61 20 22 63 58 60 66 76 139 146 137 148 117 83 123 203 207 187 221 210 163 149 143 92 121 124 141 104 151 185 209 124 188 235 296 107 133 142 151 148 143 146 139 132 137 252 302 310 312 310 307 302 302
77 60 44 21 65 90 71 98 124 120 193 100 105 116 311 153 6 32 323 341 24 173 149 135 105 126 121 110 137 178 142 177 214 225 211 159 126 126 135 148 154 157 181 191 257 301 311 314 313 310 306 304 302 306
3 160 102 27 81 108 123 336 335 6 75 82 59 73 65 86 42 10 43 83 86 118 115 97 84 107 107 123 172 127 179 213 226 196 58 88 129 144 141 146 171 186 221 275 301 314 315 310 307 306 306 302 304 307
333 127 179 156 24 87 53 67 295 33 71 67 82 133 105 85 28 41 61 71 100 83 68 56 81 97 88 77 171 195 199 221 92 62 112 124 120 126 138 166 208 249 276 290 301 309 307 307 306 303 302 304 306 305
183 75 266 172 169 228 17 42 77 42 72 85 85 144 132 106 118 78 69 66 98 61 55 13 44 51 137 197 185 171 353 62 153 126 130 148 138 132 194 300 299 293 287 290 298 305 307 306 302 300 304 313 311 309
110 315 204 185 161 238 320 55 47 100 101 121 187 188 154 128 159 174 182 165 137 86 86 72 134 75 319 242 200 86 115 138 132 134 127 159 190 284 306 300 287 281 283 289 297 303 305 308 305 303 305 305 300 296
226 245 208 187 191 207 241 171 130 115 75 154 169 149 158 185 199 208 216 201 172 126 101 71 42 228 220 65 83 149 145 152 172 199 228 297 302 303 309 303 295 296 300 304 305 303 301 295 296 298 300 297 293 299
225 256 205 209 201 212 152 111 147 111 177 145 148 150 140 154 188 158 165 193 165 111 113 171 253 28 52 93 143 127 206 196 250 287 292 299 297 299 302 308 304 304 302 301 300 299 297 294 295 295 297 294 289 290
229 224 228 258 168 153 164 165 147 120 133 121 162 132 97 98 95 117 171 188 178 212 224 226 248 264 246 231 232 229 238 264 272 275 288 293 298 289 290 294 292 289 286 290 297 303 306 306 306 307 307 301 295 295
233 231 241 242 194 158 175 166 133 143 130 125 151 152 118 139 141 142 197 196 245 236 232 253 267 277 275 287 291 279 277 277 287 294 301 306 303 300 292 286 286 291 295 300 305 307 305 306 308 307 303 301 294 302
241 232 229 207 163 161 151 136 146 158 141 156 157 131 154 153 147 175 228 234 248 264 252 256 256 254 256 251 265 280 288 296 302 297 296 293 287 285 291 298 300 298 299 304 307 302 301 300 306 305 300 298 300 303
227 214 203 163 175 151 150 144 155 130 130 173 176 164 137 153 155 194 235 235 243 290 315 288 278 268 269 305 237 283 320 318 309 305 314 317 308 302 301 296 297 296 297 298 302 300 300 304 313 316 309 303 304 301
207 205 192 147 172 166 136 140 166 158 142 178 159 152 147 163 199 212 226 158 79 103 209 178 147 171 151 288 304 10 345 318 308 306 308 310 302 298 300 300 301 301 302 306 301 299 305 308 309 307 300 298 302 304
162 175 221 145 170 180 148 142 171 164 134 157 146 105 158 194 215 226 132 90 99 73 52 57 52 40 37 13 341 310 307 301 304 303 305 298 301 302 303 305 308 308 292 293 295 301 302 302 299 298 295 300 305 303
149 145 151 114 116 109 93 69 101 121 156 163 155 167 168 199 223 101 119 111 144 62 42 10 350 345 330 317 305 308 309 306 309 310 313 320 313 298 293 301 310 305 306 307 308 306 301 298 298 297 298 301 300 305
84 130 134 143 124 81 115 129 153 159 154 152 151 182 188 212 58 80 124 68 176 110 25 326 308 314 322 311 316 314 306 313 322 324 334 328 342 318 309 312 314 315 314 314 313 309 306 302 301 301 296 298 304 292
71 97 104 89 93 84 103 118 134 123 117 164 183 182 132 101 155 156 231 256 306 306 299 314 316 328 323 334 341 325 322 334 341 345 347 335 320 322 329 328 327 326 324 321 317 313 310 308 302 302 310 298 279 289
66 55 85 76 56 85 63 55 77 144 136 185 146 123 110 108 170 199 242 293 309 330 343 346 342 349 1 355 353 352 334 326 334 341 335 327 324 324 325 325 326 325 324 323 322 321 318 314 320 311 291 291 297 286
77 70 74 55 69 78 13 10 343 283 265 230 252 240 143 165 220 283 318 350 354 358 25 19 11 340 339 340 336 332 323 310 320 322 321 318 319 320 321 322 324 323 323 323 322 324 320 324 319 305 303 307 313 315
35 34 5 38 87 21 14 47 294 249 234 256 205 212 145 133 98 317 20 100 43 15 358 357 349 338 334 333 322 315 311 315 317 314 319 318 319 320 321 322 322 321 321 322 324 320 315 320 313 312 303 307 318 324
37 33 32 4 345 16 358 351 279 273 221 245 99 82 57 47 93 217 340 20 13 352 344 335 331 333 339 312 321 317 299 306 313 316 315 314 314 316 318 320 320 322 323 323 323 313 314 318 315 313 317 322 328 329
Height
1428 1436 1441 1446 1451 1456 1461 1465 1469 1472 1475 1478 1481 1484 1486 1488 1490 1491 1493 1494 1495 1497 1500 1502 1504 1506 1509 1511 1517 1521 1527 1529 1532 1542 1543 1537 1543 1536 1535 1531 1545 1549 1554 1560 1557 1558 1552 1534 1534 1543 1540 1541 1541 1542
1428 1435 1442 1447 1452 1456 1460 1464 1468 1471 1475 1478 1481 1483 1486 1488 1490 1492 1495 1495 1496 1498 1501 1502 1504 1506 1508 1509 1513 1519 1520 1522 1526 1531 1536 1536 1543 1544 1540 1540 1522 1533 1532 1535 1539 1536 1529 1529 1531 1534 1535 1538 1539 1541
1430 1434 1441 1447 1452 1456 1459 1463 1466 1470 1474 1477 1480 1483 1485 1488 1490 1492 1493 1495 1497 1499 1503 1504 1506 1507 1508 1509 1512 1516 1518 1519 1522 1523 1532 1538 1543 1540 1545 1534 1526 1522 1522 1527 1529 1524 1525 1526 1529 1530 1533 1536 1537 1537
1435 1437 1441 1446 1452 1456 1459 1462 1466 1469 1472 1476 1479 1482 1485 1487 1489 1492 1493 1495 1497 1499 1501 1504 1504 1506 1507 1509 1511 1512 1515 1517 1519 1523 1527 1532 1536 1529 1533 1529 1526 1524 1522 1521 1520 1520 1521 1523 1526 1528 1530 1532 1533 1533
1439 1441 1443 1447 1451 1455 1458 1462 1466 1469 1472 1474 1478 1481 1483 1486 1488 1491 1492 1494 1497 1501 1501 1503 1503 1504 1506 1508 1511 1512 1514 1516 1519 1522 1525 1527 1524 1525 1523 1526 1523 1519 1518 1521 1519 1517 1519 1522 1525 1526 1527 1528 1529 1530
1445 1444 1445 1448 1451 1454 1457 1461 1465 1468 1471 1474 1477 1480 1482 1485 1487 1490 1494 1495 1496 1498 1500 1503 1503 1503 1505 1507 1510 1511 1513 1514 1516 1518 1520 1518 1518 1521 1525 1522 1513 1513 1514 1514 1514 1516 1519 1521 1522 1523 1524 1525 1527 1528
1446 1446 1448 1450 1451 1453 1456 1459 1463 1467 1470 1473 1477 1479 1481 1483 1486 1490 1492 1492 1493 1497 1499 1501 1500 1503 1503 1507 1509 1511 1511 1512 1514 1514 1515 1516 1515 1516 1519 1516 1509 1509 1510 1511 1512 1515 1518 1519 1520 1520 1522 1523 1524 1525
1448 1449 1451 1452 1452 1454 1456 1457 1461 1465 1469 1473 1476 1478 1480 1482 1485 1488 1489 1491 1492 1496 1498 1499 1501 1503 1502 1504 1506 1508 1509 1510 1511 1511 1512 1513 1512 1513 1508 1501 1502 1503 1504 1505 1510 1513 1516 1517 1518 1519 1521 1522 1523 1524
1451 1453 1454 1454 1453 1454 1456 1458 1460 1464 1468 1472 1475 1478 1480 1482 1485 1486 1489 1491 1492 1496 1492 1494 1497 1500 1500 1502 1505 1508 1510 1511 1511 1509 1510 1511 1507 1504 1497 1497 1497 1497 1500 1504 1508 1512 1513 1516 1517 1518 1519 1521 1521 1521
1453 1454 1455 1455 1455 1456 1456 1458 1460 1462 1467 1471 1475 1478 1478 1478 1483 1486 1489 1491 1491 1489 1489 1489 1491 1494 1498 1502 1505 1509 1509 1510 1508 1508 1508 1506 1495 1493 1493 1494 1495 1495 1499 1503 1506 1509 1512 1514 1517 1518 1518 1519 1518 1516
1454 1455 1456 1456 1456 1455 1455 1456 1459 1462 1464 1467 1470 1472 1473 1477 1482 1485 1486 1488 1487 1484 1481 1482 1485 1490 1495 1499 1503 1505 1506 1507 1505 1502 1505 1499 1491 1486 1486 1491 1494 1496 1498 1501 1505 1508 1511 1514 1515 1516 1516 1515 1513 1512
1457 1457 1458 1458 1458 1458 1457 1457 1460 1461 1462 1465 1466 1470 1473 1473 1475 1478 1478 1480 1478 1474 1474 1476 1480 1485 1491 1494 1497 1503 1504 1506 1498 1502 1503 1490 1482 1481 1485 1490 1495 1497 1499 1503 1506 1510 1512 1513 1513 1512 1511 1510 1508 1506
1459 1461 1462 1460 1460 1460 1461 1461 1461 1462 1464 1466 1468 1469 1470 1473 1474 1470 1469 1471 1470 1469 1471 1474 1479 1483 1488 1491 1495 1498 1498 1497 1499 1498 1492 1484 1484 1485 1488 1493 1497 1499 1500 1503 1507 1509 1510 1510 1509 1508 1506 1504 1502 1500
1459 1461 1462 1461 1462 1464 1465 1465 1465 1466 1467 1469 1471 1472 1472 1471 1473 1472 1474 1474 1472 1470 1471 1474 1478 1482 1485 1489 1492 1492 1495 1495 1493 1490 1486 1485 1485 1487 1491 1494 1498 1499 1501 1503 1504 1505 1506 1506 1504 1503 1501 1499 1497 1495
1462 1464 1465 1466 1467 1467 1468 1467 1468 1468 1469 1471 1473 1472 1473 1476 1476 1474 1474 1475 1473 1473 1474 1475 1478 1481 1485 1488 1489 1491 1493 1487 1486 1484 1489 1488 1488 1490 1492 1495 1497 1499 1500 1502 1503 1502 1502 1500 1499 1497 1496 1495 1492 1490
1463 1464 1466 1467 1468 1468 1468 1468 1469 1470 1470 1474 1474 1475 1475 1475 1476 1475 1475 1476 1475 1474 1475 1478 1480 1481 1483 1485 1486 1484 1484 1483 1484 1489 1491 1491 1491 1493 1495 1497 1498 1499 1499 1499 1499 1498 1496 1495 1493 1491 1489 1488 1486 1484
1464 1466 1466 1468 1469 1469 1470 1470 1471 1472 1473 1474 1475 1474 1476 1476 1477 1478 1478 1478 1478 1479 1481 1482 1481 1484 1488 1485 1484 1485 1485 1488 1490 1491 1491 1492 1493 1495 1497 1497 1497 1496 1496 1496 1495 1493 1491 1489 1488 1486 1483 1481 1480 1478
1466 1466 1467 1468 1470 1470 1471 1472 1473 1474 1474 1474 1475 1475 1475 1476 1477 1478 1478 1480 1481 1482 1482 1483 1484 1486 1486 1484 1482 1485 1487 1488 1489 1491 1491 1492 1493 1494 1494 1495 1494 1493 1492 1491 1490 1488 1485 1484 1482 1480 1478 1477 1475 1473
1466 1467 1468 1469 1471 1473 1473 1473 1474 1474 1475 1475 1475 1476 1476 1477 1478 1478 1480 1482 1482 1482 1483 1484 1486 1485 1483 1484 1485 1486 1487 1488 1490 1492 1492 1492 1492 1491 1491 1490 1490 1489 1487 1485 1484 1483 1481 1480 1478 1476 1473 1471 1469 1467
1466 1467 1468 1469 1471 1472 1473 1474 1474 1474 1474 1476 1477 1478 1479 1479 1479 1479 1481 1482 1483 1483 1484 1485 1484 1486 1486 1487 1487 1486 1487 1488 1489 1491 1491 1490 1489 1488 1487 1487 1486 1485 1483 1481 1480 1479 1477 1475 1473 1471 1469 1466 1464 1461
1465 1466 1467 1468 1468 1471 1472 1472 1473 1474 1475 1475 1476 1478 1479 1479 1480 1481 1483 1483 1484 1485 1484 1483 1483 1485 1486 1487 1486 1486 1486 1487 1487 1488 1488 1487 1486 1485 1484 1484 1483 1482 1480 1478 1476 1473 1472 1469 1467 1464 1461 1458 1456 1454
1464 1465 1467 1467 1467 1468 1470 1470 1472 1473 1475 1476 1478 1478 1480 1481 1481 1483 1483 1484 1483 1481 1481 1482 1482 1483 1483 1483 1483 1483 1483 1483 1483 1484 1484 1483 1482 1482 1482 1481 1480 1477 1475 1473 1471 1468 1465 1462 1460 1457 1455 1452 1450 1447
1463 1465 1466 1465 1465 1466 1469 1469 1471 1472 1474 1477 1478 1479 1480 1481 1482 1483 1483 1482 1480 1478 1479 1480 1480 1480 1481 1481 1482 1482 1482 1482 1482 1482 1482 1481 1480 1479 1477 1476 1474 1472 1469 1466 1464 1462 1459 1456 1454 1451 1448 1445 1443 1441
1461 1463 1460 1460 1462 1464 1466 1467 1469 1471 1472 1474 1475 1476 1479 1480 1482 1482 1480 1478 1478 1478 1479 1479 1479 1479 1480 1480 1480 1481 1482 1481 1481 1480 1479 1478 1476 1474 1473 1470 1468 1466 1463 1459 1457 1454 1452 1449 1446 1444 1442 1439 1437 1435
1462 1461 1458 1457 1459 1461 1460 1464 1466 1467 1468 1472 1473 1474 1478 1480 1479 1478 1477 1476 1477 1477 1477 1478 1479 1480 1480 1480 1481 1481 1478 1477 1477 1476 1475 1474 1471 1467 1464 1462 1460 1459 1456 1452 1449 1446 1444 1442 1440 1438 1436 1434 1432 1430
1451 1453 1454 1453 1455 1455 1456 1459 1462 1463 1465 1469 1472 1475 1477 1476 1475 1472 1472 1476 1477 1478 1478 1478 1478 1479 1479 1478 1477 1476 1475 1474 1472 1470 1469 1467 1465 1462 1458 1455 1452 1451 1448 1446 1442 1440 1438 1436 1434 1432 1430 1429 1427 1425
1448 1451 1453 1453 1453 1453 1456 1459 1460 1461 1464 1465 1468 1472 1473 1472 1469 1471 1475 1476 1477 1477 1478 1478 1477 1476 1476 1475 1474 1473 1470 1468 1467 1465 1462 1461 1460 1456 1454 1451 1448 1445 1442 1440 1438 1435 1433 1431 1429 1427 1425 1424 1422 1420
1450 1451 1451 1454 1454 1454 1455 1457 1460 1460 1461 1462 1466 1468 1468 1467 1470 1475 1475 1475 1475 1476 1477 1476 1473 1473 1472 1471 1470 1468 1466 1464 1462 1460 1459 1458 1456 1451 1450 1447 1444 1441 1438 1435 1433 1431 1429 1426 1424 1422 1420 1418 1416 1414
1452 1453 1454 1455 1455 1455 1456 1457 1458 1459 1461 1462 1463 1464 1467 1469 1472 1473 1473 1473 1473 1473 1472 1472 1470 1470 1469 1469 1469 1466 1464 1461 1459 1456 1455 1454 1450 1448 1445 1442 1439 1436 1433 1430 1428 1426 1424 1421 1419 1417 1415 1413 1411 1409
1455 1455 1455 1456 1456 1455 1458 1458 1459 1460 1462 1463 1464 1465 1466 1468 1469 1470 1471 1470 1470 1470 1470 1470 1469 1468 1468 1468 1467 1466 1464 1460 1458 1457 1453 1451 1448 1445 1441 1438 1435 1432 1429 1426 1423 1421 1419 1416 1414 1413 1410 1408 1407 1405
1456 1456 1456 1456 1457 1459 1460 1460 1460 1461 1462 1462 1463 1464 1465 1467 1468 1468 1469 1470 1470 1469 1470 1469 1470 1469 1467 1466 1465 1463 1462 1459 1456 1454 1452 1448 1445 1442 1438 1435 1432 1428 1425 1423 1420 1418 1415 1413 1411 1409 1406 1404 1403 1401
1457 1458 1458 1457 1459 1461 1460 1461 1461 1461 1461 1461 1462 1463 1465 1466 1469 1470 1468 1469 1470 1469 1468 1468 1467 1466 1465 1463 1463 1461 1458 1456 1453 1450 1447 1443 1440 1437 1434 1431 1428 1425 1422 1419 1417 1414 1412 1410 1407 1405 1404 1402 1400 1399
1460 1460 1460 1460 1460 1460 1461 1460 1459 1459 1459 1459 1461 1463 1465 1466 1469 1471 1469 1468 1469 1468 1467 1466 1465 1464 1462 1461 1460 1458 1455 1451 1448 1445 1442 1438 1435 1432 1429 1426 1423 1420 1418 1415 1413 1411 1408 1406 1405 1403 1401 1400 1398 1397